DMSP 5D-2 F13 DEB, 42278

Orbit data source: Space-Track

DMSP 5D-2 F13 DEB, 42278 is space debris in SSO originally from a launch on Fri, 24 Mar 1995 UTC launched from the Air Force Western Test Range (AFWTR). Debris objects in space refer to the collection of defunct objects orbiting the Earth. Examples of debris include non-operational satellites, rocket bodies, and fragments generated from explosions, collisions, or faulty payload assembly.

Loading next visibility...
Identifier
42278, 1995-015GU
Orbit
SSO
Country
Flag of USUS
Related business
Manufacturer
Unknown
Mission
Spacecraft
Bus & Motor
Unknown
Mass
Unknown
Launch date (UTC)
1995-03-24 (31 years ago)
Launch vehicle
Unknown
Launch site
Air Force Western Test Range (AFWTR)
Object type
Payload
Rocket body
Debris
Shape & HBR
Unknown shape, 0.1 m
Radar Cross Section
Small (<0.1 m²)

Expand to show TLE details & history
Last TLE update: 3 days ago

TLE from 3 days ago
0 DMSP 5D-2 F13 DEB
1 42278U 95015GU  26035.01510651  .00017184  00000-0  41654-2 0  9991
2 42278  98.8773  60.2347 0023553 291.0430  68.8245 14.52842887548353
Epoch: 2026-02-04T00:21Z
TLE epoch observation values (Epoch: 2026-02-04T00:21:45.202Z)
Latitude
-0.00004°
Longitude
-79.39139°
Altitude
713.329 km
Speed
7.502 km/s
True Right ascension
04h 00m 56s
True Declination
0° 00' 00"
Sunlit
Object was in daylight at epoch
Visualization orbit readout
Latitude
Unknown
Longitude
Unknown
Altitude
Unknown
Speed
Unknown
Apparent Right ascension
Unknown
Apparent Declination
Unknown
Sunlit
N/A
Visualization observer readout
Local Sidereal Time
20:39:56
Azimuth
Unknown
Elevation
Unknown
Doppler factor
Unknown
Orbital elements
Apogee altitude
730.204 km
Perigee altitude
696.799 km
Semi-major axis
7,091.639 km
Eccentricity
0.00236
Inclination
98.8773°
RAAN
60.2347°
Arg. of periapsis
291.043°
True anomaly
69.07644°
Mean anomaly
68.8245°
Eccentric anomaly
68.95044°
Mean motion
3.63432 °/min
Orbital period
99.06 mins
BSTAR
0.0041654
Loading maneuver chart data...
Computing Atmospheric mass density...

Documentation

Showing up to 5 results
|